Miro Buroni

TREVISATLETICA
27-07-1992


Informazioni sul tesseramento aggiornate al 2020


Condividi con
Seguici su:


400 metri

Anno Data Tipo Cr. Cat. Piazz. Prestaz. Vento Città  
201525/04PESM1 se- 2 49.65Padova
201602/10PESM3 se- 1 49.86Padova
201621/05PESM1 se- 2 50.18Agordo
201720/05PESM3 se- 1 50.24San Biagio Di Callalta
201610/01IESM4 se- 1 50.70Padova
201901/06PESM3 se- 3 50.71Vicenza
201419/01IEPM1 se- 2 50.72Padova
202026/01IESM2 se- 6 51.33Padova
202012/01IESM3 se- 4 51.39Padova
201814/01IESM3 se- 2 51.53Padova
201724/09PESM4 se- 2 51.63Arzignano
200828/06PEAM2 se- 8 55.42Villafranca Di Verona
 

500 metri

Anno Data Tipo Cr. Cat. Piazz. Prestaz. Vento Città  
201306/04PMPM1 su- 1 1:07.9Noale
 

800 metri

Anno Data Tipo Cr. Cat. Piazz. Prestaz. Vento Città  
201501/07PESM6 se- 2 1:49.00Nembro
201523/05PESM2 se- 3 1:49.39Fidenza
201615/06PESM7 se- 3 1:50.46Conegliano Veneto
201211/09PEPM2 se- 4 1:50.70Marcon
201431/05PEPM10 se- 2 1:50.85Caprino Veronese
201308/06PEPM7 se- 8 1:51.06Caprino Veronese
201618/06PESM1 se- 2 1:51.20Nembro
201619/07PESM8 se- 1 1:51.29Trento
201403/08PEPM2 se- 2 1:51.30Pergine Valsugana
201424/05PEPM5 se- 3 1:51.40Milano
201626/05PESM8 se- 1 1:51.42Orvieto
201605/06PESM1 se- 1 1:51.72Bovolone
201623/07PESM1 se- 1 1:51.74Gorizia
201721/01IESM2 se- 2 1:51.95Padova
201522/02IESM4 se- 2 1:51.98Padova
201524/07PESM5 ba- 1 1:52.11Torino
201315/06PEPM8 se- 2 1:52.23Rieti
201608/05PESM3 se- 1 1:52.38Vicenza
201220/05PEPM2 se- 8 1:52.46Vicenza
201808/07PESM2 se- 1 1:52.48Arzignano
201411/07PEPM4 se- 2 1:52.52Nembro
201303/07PEPM4 se- 2 1:52.60Nembro
201528/08PESM6 se- 1 1:52.64Cles
201401/05PEPM3 se- 4 1:52.65Trento
201326/05PEPM4 se- 3 1:52.74Cassino
201517/01IESM3 se- 1 1:52.86Padova
201407/06PEPM6 fi- 1 1:52.91Torino
201312/05PEPM2 se- 1 1:52.94Marcon
201406/06PEPM1 ba- 2 1:53.03Torino
201807/09PESM6 ba- 1 1:53.11Pescara
201707/05PESM4 se- 1 1:53.12Bussolengo
201317/02IEPM4 se- 3 1:53.14Ancona
201808/06PESM3 se- 2 1:53.18Ponzano Veneto
201827/05PESM5 se- 1 1:53.21Bussolengo
201429/06PEPM1 se- 1 1:53.31Bassano Del Grappa
201314/04PEPM1 se- 7 1:53.36Vicenza
201603/09PESM1 se- 3 1:53.43Brugnera
201919/01IESM4 se- 1 1:53.45Padova
201216/06PEPM7 se- 2 1:53.46Misano Adriatico
201326/07PEPM11 ba- 1 1:53.56Milano
201510/05PESM2 se- 1 1:53.63Marcon
201912/05PESM8 se- 1 1:53.89San Biagio Di Callalta
201418/07PEPM8 ba- 1 1:53.94Rovereto
201227/05PEPM4 se- 3 1:53.99Messina
201423/02IEPM4 se- 2 1:54.00Ancona
201616/01IESM2 se- 1 1:54.38Padova
201620/02IESM3 se- 1 1:54.42Padova
201714/01IESM4 se- 1 1:54.44Padova
201215/04PEPM1 se- 1 1:54.50Vicenza
201128/05PEJM4 se- 1 1:54.53Noale
201307/09PEPM1 se- 1 1:54.54Rovigo
201118/06PEJM2 se- 1 1:54.60Bressanone
201103/07PEJM1 se- 1 1:54.62Marcon
201120/05PEJM4 se- 1 1:54.67Mogliano Veneto
201411/05PEPM1 se- 1 1:54.68Vicenza
201824/06PESM3 su- 1 1:54.76Sulmona
201719/02IESM4 se- 2 1:54.78Ancona
201630/01IESM2 se- 1 1:54.79Padova
201425/01IEPM4 se- 1 1:54.95Padova
201902/06PESM6 se- 1 1:55.00Vicenza
201925/04PESM1 se- 1 1:55.08Padova
201624/06PESM6 ba- 1 1:55.13Rieti
201304/05PEPM1 se- 1 1:55.19Scorze
201205/05PEPM1 se- 1 1:55.20Scorze
201815/06PESM8 se- 3 1:55.26Conegliano
201806/05PESM7 se- 1 1:55.38Caorle
201531/01IESM4 se- 1 1:55.44Padova
201103/09PEJM1 se- 1 1:55.55Brugnera
201625/08PESM3 se- 2 1:55.59Cles
201903/02IESM4 se- 1 1:55.79Padova
201829/04PESM1 se- 1 1:55.81San Biagio Di Callalta
201226/02IEPM3 se- 1 1:55.85Ancona
201917/02IESM7 se- 1 1:56.32Ancona
201409/02IEPM8 se- 3 1:56.40Ancona
201118/09PEJM2 su- 1 1:56.74Bassano Del Grappa
201721/05PESM9 se- 1 1:57.58San Biagio Di Callalta
201606/03IESM6 se- 3 1:58.01Ancona
200917/06PEAM8 se- 3 1:58.09Mogliano Veneto
201107/05PEJM4 se- 1 1:58.13Scorze
201408/01IEPM2 se- 2 1:58.41Padova
200906/06PEAM7 se- 4 1:59.66Bussolengo
200808/10PEAM4 su- 1 1:59.76Mestre
201017/09PEJM3 se- 2 2:00.05Marcon
200905/09PEAM6 se- 3 2:00.40Brugnera
200924/05PEAM5 se- 1 2:00.55Rosa
200902/05PEAM3 se- 2 2:01.05Scorze
200904/06PEAM7 se- 2 2:01.67Piombino Dese
200902/06PEAM1 su- 1 2:02.23Verona
200912/07PEAM3 se- 2 2:02.31Mestre
201008/05PEJM7 se- 1 2:02.33Scorze
200924/01IEAM6 se- 1 2:02.92Padova
201001/05PEJM8 se- 1 2:03.21Voltabarozzo
200806/09PEAM5 se- 3 2:04.26Brugnera
200821/09PEAM4 se- 1 2:05.33Bovolone
200829/07PEAM3 se- 9 2:05.73Trento
200830/08PEAM2 se- 3 2:05.82Trento
200812/07PEAM1 se- 6 2:07.50Bussolengo
 

1000 metri

Anno Data Tipo Cr. Cat. Piazz. Prestaz. Vento Città  
201229/09PEPM2 se- 1 2:25.04Mestre
201321/04PEPM2 se- 1 2:27.32Treviso
201025/09PEJM3 se- 1 2:31.98Mestre
200911/09PMAM1 su- 1 2:35.4Verona
200917/10PEAM2 se- 1 2:36.41Mestre San Giuliano
201010/04PMJM1 su- 1 2:39.9Noale
200931/01IEAM5 se- 1 2:43.07Padova
200917/01IEAM1 su- 1 2:43.36Padova
 

1500 metri

Anno Data Tipo Cr. Cat. Piazz. Prestaz. Vento Città  
201428/06PEPM2 se- 1 3:51.82Bassano Del Grappa
201225/04PEPM1 se- 1 3:52.50Conegliano
201319/05PEPM4 se- 4 3:53.15Gavardo
201219/05PEPM4 se- 3 3:53.90Vicenza
201204/09PEPM6 se- 1 3:54.00Rovereto
201506/06PESM3 se- 1 3:54.21Rovigo
201206/05PEPM3 se- 1 3:54.93Marcon
201410/05PEPM3 se- 1 3:54.94Vicenza
201301/05PMPM2 se- 1 3:55.2Padova
201325/05PEPM3 se- 2 3:55.42Cassino
201117/09PEJM3 su- 1 3:55.76Bassano Del Grappa
201314/09PEPM4 se- 1 3:56.92Verona
201217/06PEPM9 su- 1 3:57.50Misano Adriatico
201311/05PEPM2 se- 1 3:58.32Marcon
201226/05PEPM3 su- 1 3:58.33Messina
201108/07PEJM7 se- 1 3:58.33Ponzano Veneto
201222/04PEPM1 se- 1 3:58.37Treviso
201225/02IEPM5 se- 1 3:58.81Ancona
201402/09PEPM11 su- 1 3:59.40Rovereto
201222/01IEPM1 se- 2 3:59.88Ancona
201312/07PEPM3 se- 2 4:00.41Sacile
201201/09PEPM1 se- 2 4:00.89Rovigo
201316/06PEPM11 se- 1 4:01.39Rieti
201607/05PESM7 se- 1 4:01.47Vicenza
201318/10PMPM1 su- 1 4:01.7Murano
201509/05PESM3 se- 1 4:03.30Marcon
201307/04PEPM1 se- 2 4:03.64Marcon
201004/06PEJM8 su- 1 4:04.04Trento
201011/09PEJM13 se- 1 4:04.49Villafranca Ver.
201706/05PESM9 se- 1 4:05.04Bussolengo
201014/07PEJM5 se- 2 4:06.40Conegliano
201501/02IESM10 se- 1 4:06.87Padova
201527/09PESM4 su- 1 4:07.02Rovereto
201002/06PEJM1 su- 1 4:07.57Verona
200916/09PEAM5 se- 2 4:08.07Faenza
201101/05PEJM8 se- 1 4:09.20Montebelluna
200915/07PEAM3 se- 1 4:10.51Conegliano
200909/05PEAM3 se- 2 4:10.89Treviso
200901/05PEAM1 se- 2 4:11.95Padova
200919/04PEAM4 su- 1 4:12.02Vicenza
201001/07PEJM9 se- 3 4:12.36Quinto Di Treviso
200925/04PEAM1 su- 1 4:12.94Conegliano
200920/06PEAM4 se- 4 4:13.11Villafranca Di Verona
200928/03PMAM4 su- 1 4:14.1 Noale
200903/10PEAM7 su- 1 4:15.16Grosseto
201025/04PEJM9 su- 1 4:15.64Conegliano
200923/05PEAM3 se- 1 4:16.87Rosa
200820/09PEAM9 su- 1 4:18.99Bovolone
201018/04PEJM18 se- 1 4:19.68Treviso
201020/08PMJM1 se- 1 4:20.0Cortina D'ampezzo
201008/06PEJM15 se- 2 4:20.11Imola
200919/09PEAM4 se- 1 4:20.32Mogliano Veneto
200919/08PMAM10 se- 1 4:20.4Cortina
 

3000 metri

Anno Data Tipo Cr. Cat. Piazz. Prestaz. Vento Città  
200920/09PEAM4 su- 1 9:11.73Mogliano Veneto
201017/04PEJM5 se- 1 9:15.96Piombino Dese
 

Corsa strada Km 10

Anno Data Tipo Cr. Cat. Piazz. Prestaz. Vento Città  
201012/09SMJM5 su- 1 35:21Pordenone
 

MARATONINA B

Anno Data Tipo Cr. Cat. Piazz. Prestaz. Vento Città  
201402/03SMPM421 su- 1 1h22:28Roma
 

Attenzione: le schede-atleti sono composte automaticamente sulla base dei dati inseriti all'interno degli archivi nazionali aggiornati dal 2005 al 05-04-2020. Se un risultato non compare nelle graduatorie, quindi, è segno che lo stesso, con ogni probabilità, non è stato ancora inserito. Il processo di inserimento è di competenza dei Comitati Regionali sul cui territorio ha avuto luogo la manifestazione: eventuali segnalazioni per errori od omissioni, vanno dunque indirizzate agli stessi (potete utilizzare l'elenco con relativi contatti). Considerato però che solo le principali manifestazioni nazionali sono oggetto di inserimenti "in diretta" (sul posto di gara), mentre le altre, incluse le internazionali in programma all'estero, vengono inserite in tempi successivi, è opportuno attendere un ragionevole lasso di tempo prima di procedere ad una segnalazione.

Stickers


Non ventosi

GaraTipoPrestazioneVentoAnnoCittà
400 metriPista 49.652015Padova
400 metriIndoor 50.702016Padova
500 metriPista 1:07.92013Noale
800 metriPista 1:49.002015Nembro
800 metriIndoor 1:51.952017Padova
1000 metriPista 2:25.042012Mestre
1000 metriIndoor 2:43.072009Padova
1500 metriPista 3:51.822014Bassano Del Grappa
1500 metriIndoor 3:58.812012Ancona
3000 metriPista 9:11.732009Mogliano Veneto
Corsa strada Km 10Strada 35:212010Pordenone
MARATONINA BStrada 1h22:282014Roma

AnnoTipo mov.CategoriaSocietà
2020TrasferimentoSeniores MaschileTREVISATLETICA
2019RinnovoSeniores MaschileGA ARISTIDE COIN VENEZIA 1949
2018RinnovoSeniores MaschileGA ARISTIDE COIN VENEZIA 1949
2017RinnovoSeniores MaschileGA ARISTIDE COIN VENEZIA 1949
2016RinnovoSeniores MaschileGA ARISTIDE COIN VENEZIA 1949
2015RinnovoSeniores MaschileGA ARISTIDE COIN VENEZIA 1949
2014TrasferimentoPromesse MaschileGA ARISTIDE COIN VENEZIA 1949
2013RinnovoPromesse MaschileVENEZIA RUNNERS ATL.MURANO
2012RinnovoPromesse MaschileVENEZIA RUNNERS ATL.MURANO
2011RinnovoJuniores MaschileVENEZIA RUNNERS ATL.MURANO
2010RinnovoJuniores MaschileVENEZIA RUNNERS ATL.MURANO
2009RinnovoAllieviVENEZIA RUNNERS ATL.MURANO
2008NuovoAllieviVENEZIA RUNNERS ATL.MURANO